Content
SEND FEEDBACK

Daily
Averages
Monthly
Summary
United States of America

RIMROCK, ARIZONA


Home > North America > United States > Arizona
Elevation: 3830 feet     Latitude: 34 40N     Longitude: 111 43W

WEATHER
 
SELECT A DAY
Number of Records: 140,135;   Date Range: 1/4/95 - 11/25/14
 
SHARE

PRINT THIS DATA

[ ← Previous Day ]
WEATHER ALMANAC - AUGUST 15, 2014
[ Next Day → ]
[ °C ]   °F
Weather ElementAverageHighLow
Temperature78.9 °F89.6 °F (12:55 pm)68 °F (2:55 am)
Dewpoint54.2 °F60.8 °F (12:15 am)46.4 °F (8:15 pm)
Humidity45.4 %73 % (4:35 pm)22 % (7:55 am)
Barometer30.18 in30.25 in (9:15 am)30.12 in (3:15 pm)
Wind Speed5.6 mph15 mph (2:15 pm)
Wind Gust21.9 mph (2:15 pm)
Weather ElementAverage
Visibility10 mi
Wind DirectionSE (135.1 °)

Weather ElementTotal
Precipitation---
Cooling Degree Days13.8 (Base 65)
Growing Degree Days28.8 (Base 50)
Averaged from 69 records on August 15, 2014
WEATHER CONDITIONS BREAKOUT
WIND DIRECTION BREAKOUT
WEATHER BY HOUR - AUGUST 15, 2014
[ °C ]   °F
Local TimeTemperatureDewpointHumidityBarometerVisibilityWind DirectionWind SpeedGust SpeedPrecipitationEventsConditions
12:15 AM73.4 °F57.2 °F57 %30.18 in10.0 miNNE (30°)3.5 mphMostly Cloudy
12:35 AM73.4 °F57.2 °F57 %30.19 in10.0 miCalmOvercast
12:55 AM73.4 °F55.4 °F53 %30.18 in10.0 miSSE (160°)4.6 mphOvercast
1:15 AM73.4 °F55.4 °F53 %30.18 in10.0 miCalmMostly Cloudy
1:35 AM71.6 °F57.2 °F60 %30.19 in10.0 miESE (120°)4.6 mphMostly Cloudy
1:55 AM71.6 °F57.2 °F60 %30.19 in10.0 miSE (140°)4.6 mphScattered Clouds
2:15 AM71.6 °F57.2 °F60 %30.19 in10.0 miCalmMostly Cloudy
2:35 AM71.6 °F59.0 °F64 %30.19 in10.0 miCalmScattered Clouds
2:55 AM69.8 °F59.0 °F68 %30.19 in10.0 miNNE (30°)5.8 mphClear
3:35 AM69.8 °F59.0 °F68 %30.20 in10.0 miNNE (30°)8.1 mphClear
4:15 AM68.0 °F59.0 °F73 %30.20 in10.0 miNE (40°)8.1 mphClear
4:35 AM68.0 °F59.0 °F73 %30.19 in10.0 miNE (40°)9.2 mphClear
4:55 AM68.0 °F57.2 °F68 %30.19 in10.0 miNE (50°)9.2 mphClear
5:15 AM68.0 °F57.2 °F68 %30.20 in10.0 miNE (50°)6.9 mphClear
5:35 AM68.0 °F57.2 °F68 %30.20 in10.0 miNE (40°)9.2 mphClear
5:55 AM68.0 °F57.2 °F68 %30.21 in10.0 miNE (40°)8.1 mphClear
6:15 AM68.0 °F59.0 °F73 %30.21 in10.0 miNE (40°)9.2 mphClear
6:35 AM68.0 °F59.0 °F73 %30.21 in10.0 miNE (40°)9.2 mphClear
6:55 AM69.8 °F59.0 °F68 %30.22 in10.0 miNE (40°)6.9 mphClear
7:15 AM69.8 °F59.0 °F68 %30.22 in10.0 miNNE (30°)6.9 mphClear
7:35 AM71.6 °F59.0 °F64 %30.23 in10.0 miNNE (30°)4.6 mphClear
7:55 AM73.4 °F59.0 °F61 %30.24 in10.0 miCalmClear
8:15 AM75.2 °F60.8 °F61 %30.24 in10.0 miSE (130°)3.5 mphClear
8:35 AM75.2 °F59.0 °F57 %30.24 in10.0 miCalmClear
8:55 AM78.8 °F60.8 °F54 %30.24 in10.0 miCalmClear
9:15 AM78.8 °F60.8 °F54 %30.25 in10.0 miCalmClear
9:35 AM78.8 °F59.0 °F51 %30.25 in10.0 miSouth (180°)4.6 mphClear
10:15 AM80.6 °F60.8 °F51 %30.24 in10.0 miSSW (210°)4.6 mphClear
10:35 AM80.6 °F60.8 °F51 %30.24 in10.0 miWest (270°)4.6 mphClear
10:55 AM80.6 °F59.0 °F48 %30.24 in10.0 miSSW (210°)3.5 mphClear
11:15 AM82.4 °F59.0 °F45 %30.23 in10.0 miSSE (150°)4.6 mphClear
11:35 AM86.0 °F59.0 °F40 %30.23 in10.0 miSouth (190°)6.9 mphClear
11:55 AM86.0 °F55.4 °F35 %30.21 in10.0 miSouth (190°)6.9 mphClear
12:15 PM86.0 °F55.4 °F35 %30.21 in10.0 miSSW (200°)8.1 mphClear
12:35 PM86.0 °F53.6 °F33 %30.21 in10.0 miWNW (290°)8.1 mphScattered Clouds
12:55 PM86.0 °F51.8 °F31 %30.20 in10.0 miNW (310°)4.6 mphThunderstormScattered Clouds
1:15 PM87.8 °F53.6 °F31 %30.19 in10.0 miWest (270°)6.9 mph17.3 mphClear
1:35 PM86.0 °F51.8 °F31 %30.18 in10.0 miNW (320°)8.1 mphScattered Clouds
1:55 PM87.8 °F51.8 °F29 %30.17 in10.0 miWNW (290°)9.2 mphScattered Clouds
2:15 PM87.8 °F51.8 °F29 %30.16 in10.0 miWest (280°)15.0 mph21.9 mphClear
2:35 PM87.8 °F50.0 °F27 %30.16 in10.0 miWest (280°)15.0 mphThunderstormClear
2:55 PM89.6 °F50.0 °F26 %30.16 in10.0 miWest (270°)10.4 mphClear
3:15 PM87.8 °F46.4 °F24 %30.16 in10.0 miWest (260°)4.6 mphClear
3:35 PM87.8 °F48.2 °F25 %30.14 in10.0 miWest (280°)11.5 mph17.3 mphThunderstormThunderstorm
3:55 PM89.6 °F46.4 °F22 %30.13 in10.0 miWest (280°)12.7 mph18.4 mphThunderstormThunderstorm
4:15 PM89.6 °F48.2 °F24 %30.13 in10.0 miSW (220°)6.9 mphThunderstormThunderstorm
4:35 PM87.8 °F46.4 °F24 %30.13 in10.0 miWNW (300°)11.5 mphThunderstormThunderstorm
4:55 PM87.8 °F48.2 °F25 %30.13 in10.0 miNW (310°)6.9 mphThunderstormClear
5:15 PM87.8 °F46.4 °F24 %30.13 in10.0 miWest (280°)8.1 mphThunderstormThunderstorm
5:35 PM87.8 °F46.4 °F24 %30.13 in10.0 miWest (260°)6.9 mph19.6 mphClear
5:55 PM87.8 °F46.4 °F24 %30.12 in10.0 miWest (270°)8.1 mphClear
6:15 PM87.8 °F46.4 °F24 %30.12 in10.0 miWSW (240°)8.1 mphClear
6:35 PM86.0 °F46.4 °F25 %30.12 in10.0 miWSW (250°)8.1 mphScattered Clouds
6:55 PM84.2 °F46.4 °F27 %30.12 in10.0 miWest (260°)6.9 mphScattered Clouds
7:15 PM82.4 °F48.2 °F30 %30.13 in10.0 miWest (280°)4.6 mphClear
7:35 PM82.4 °F48.2 °F30 %30.13 in10.0 miWest (280°)4.6 mphClear
7:55 PM80.6 °F50.0 °F34 %30.15 in10.0 miNorth (360°)3.5 mphClear
8:15 PM80.6 °F50.0 °F34 %30.15 in10.0 miCalmClear
8:35 PM80.6 °F51.8 °F37 %30.16 in10.0 miNorth (10°)3.5 mphClear
8:55 PM78.8 °F53.6 °F42 %30.17 in10.0 miNE (40°)5.8 mphClear
9:15 PM78.8 °F53.6 °F42 %30.17 in10.0 miNE (50°)4.6 mphClear
9:35 PM77.0 °F53.6 °F44 %30.17 in10.0 miCalmClear
9:55 PM78.8 °F51.8 °F39 %30.18 in10.0 miNNE (30°)3.5 mphClear
10:15 PM77.0 °F53.6 °F44 %30.17 in10.0 miCalmClear
10:35 PM75.2 °F53.6 °F47 %30.18 in10.0 miCalmClear
10:55 PM77.0 °F51.8 °F41 %30.19 in10.0 miCalmClear
11:15 PM77.0 °F51.8 °F41 %30.19 in10.0 miCalmClear
11:35 PM77.0 °F51.8 °F41 %30.20 in10.0 miNNE (30°)4.6 mphClear
11:55 PM73.4 °F53.6 °F50 %30.19 in10.0 miNE (40°)6.9 mphClear
Hourly data recorded from KSEZ, located miles away from Rimrock, Arizona







STORIES FROM OUR PARTNERS